Regional Weather Roundup
Issued by NWS

Home | Current Version | Previous Version | Graphics & Text | Print | Product List | Glossary On
Versions: 1 2 3 4 5 6 7 8 9 10 11 12 13 14 15 16 17 18 19 20 21 22 23 24 25 26 27 28 29 30 31 32 33 34 35 36 37 38 39 40 41 42 43 44 45 46 47 48 49 50
000
ASUS43 KLSX 210959
RWRMO

WEATHER SUMMARY FOR MISSOURI
NATIONAL WEATHER SERVICE SPRINGFIELD MO
500 AM CDT MON APR 21 2014

NOTE: "FAIR" INDICATES FEW OR NO CLOUDS BELOW 12,000 FEET WITH NO
       SIGNIFICANT WEATHER AND/OR OBSTRUCTIONS TO VISIBILITY.
       CURRENT SKY AND/OR WEATHER CONDITIONS ARE NOT AVAILABLE FOR
       CHILLICOTHE AND FARMINGTON.

MOZ001>031-035>038-043-044-053-054-211100-
...NORTHERN AND WESTERN MISSOURI...

CITY           SKY/WX    TMP DP  RH WIND       PRES   REMARKS
KANSAS CTY INT DRIZZLE   61  55  81 S7        29.98S
KANSAS C DTWN  CLOUDY    66  55  67 SW7       29.97F
LEE`S SUMMIT   CLOUDY    63  55  75 SW10      29.99S
ST JOSEPH      LGT RAIN  62  58  86 CALM      29.97S
KIRKSVILLE     CLOUDY    62  52  69 SW6       29.98F

$$
MOZ066>068-077>081-088>096-101>105-211100-
...SOUTHWEST MISSOURI...

CITY           SKY/WX    TMP DP  RH WIND       PRES   REMARKS
SPRINGFIELD    LGT RAIN  60  57  89 CALM      30.04S
JOPLIN         LGT RAIN  60  59  96 S3        30.03F FOG

$$
MOZ032>034-039>042-045>050-055>058-069>072-211100-
...CENTRAL MISSOURI...

CITY           SKY/WX    TMP DP  RH WIND       PRES   REMARKS
COLUMBIA       CLOUDY    62  51  67 S3        30.01S
JEFFERSON CITY CLOUDY    58  53  84 E3        30.01S
ROLLA          CLOUDY    61  49  64 S10       30.02S
SEDALIA        CLOUDY    63  54  72 SW8       30.02S
OSAGE BEACH    CLOUDY    61  48  63 SW8       30.05R

$$
MOZ051-052-059>065-211100-
...EAST CENTRAL MISSOURI...

CITY           SKY/WX    TMP DP  RH WIND       PRES   REMARKS
ST LOUIS INTL  CLOUDY    65  45  48 CALM      30.02F
SPIRIT OF STL  MOCLDY    58  49  72 CALM      30.01S
ST CHARLES     CLOUDY    59  49  69 SE5       30.00F

$$
MOZ072>076-082>087-097>100-106>115-211100-
...SOUTH CENTRAL AND SOUTHEAST MISSOURI...

CITY           SKY/WX    TMP DP  RH WIND       PRES   REMARKS
CAPE GIRARDEAU CLOUDY    56  52  86 CALM      30.05S
FARMINGTON     CLOUDY    61  45  55 CALM      30.07S
POPLAR BLUFF   MOCLDY    59  53  80 CALM      30.04S
WEST PLAINS    LGT RAIN  62  53  72 S7        30.08R

$$



USA.gov is the U.S. government's official web portal to all federal, state and local government web resources and services.